When you browse on this site, cookies collect data to enhance your experience and personalize the content and advertising you see.
Visit our Privacy Policy to learn more. By continuing to use the site, you agree to this use of cookies and data.
  • In Latvia
  • List of Countries
  • For 7 days
  • Water Temperature
  • Satellite Maps
  • Weather Map
  • Weather Widgets
  • user-avatar
    Login

    Hourly Weather Salzburg

    Today, 20 February, Wednesday

    Time Temperature Precipitation Wind Pressure Humidity
    00:00 -2°C° 0.1 mm 1 mps 626 mmHg 81%
    01:00 -2°C° 0 mm 1 mps 627 mmHg 83%
    02:00 -2°C° 0.1 mm 1 mps 626 mmHg 85%
    03:00 -3°C° 0.1 mm 1 mps 626 mmHg 86%
    04:00 -3°C° 0.1 mm 1 mps 626 mmHg 88%
    05:00 -3°C° 0 mm 1 mps 626 mmHg 88%
    06:00 -3°C° 0 mm 1 mps 626 mmHg 88%
    07:00 -4°C° 0 mm 1 mps 626 mmHg 89%
    08:00 -2°C° 0 mm 1 mps 627 mmHg 89%
    09:00 -1°C° 0 mm 1 mps 627 mmHg 90%
    10:00 0°C° 0 mm 0 mps 628 mmHg 91%
    11:00 +1°C° 0 mm 1 mps 628 mmHg 91%
    12:00 +2°C° 0 mm 1 mps 628 mmHg 91%
    13:00 +3°C° 0 mm 1 mps 628 mmHg 91%
    14:00 +2°C° 0 mm 1 mps 628 mmHg 92%
    15:00 +1°C° 0 mm 0 mps 628 mmHg 93%
    16:00 +1°C° 0 mm 0 mps 628 mmHg 94%
    17:00 0°C° 0 mm 0 mps 628 mmHg 94%
    18:00 -1°C° 0 mm 1 mps 628 mmHg 94%
    19:00 -2°C° 0 mm 1 mps 628 mmHg 94%
    20:00 -2°C° 0 mm 1 mps 628 mmHg 92%
    21:00 -3°C° 0 mm 1 mps 628 mmHg 91%
    22:00 -3°C° 0 mm 1 mps 629 mmHg 90%
    23:00 -3°C° 0 mm 1 mps 629 mmHg 89%

    Tomorrow, 21 February, Thursday

    Time Temperature Precipitation Wind Pressure Humidity
    00:00 -3°C° 0 mm 1 mps 629 mmHg 88%
    01:00 -3°C° 0 mm 1 mps 629 mmHg 88%
    02:00 -3°C° 0 mm 1 mps 629 mmHg 87%
    03:00 -3°C° 0 mm 1 mps 629 mmHg 87%
    04:00 -3°C° 0 mm 1 mps 629 mmHg 87%
    05:00 -3°C° 0 mm 1 mps 629 mmHg 87%
    06:00 -3°C° 0 mm 1 mps 629 mmHg 87%
    07:00 -3°C° 0 mm 1 mps 630 mmHg 86%
    08:00 -1°C° 0 mm 1 mps 630 mmHg 86%
    09:00 0°C° 0 mm 1 mps 631 mmHg 86%
    10:00 0°C° 0 mm 0 mps 631 mmHg 86%
    11:00 +2°C° 0 mm 1 mps 631 mmHg 85%
    12:00 +3°C° 0 mm 1 mps 631 mmHg 84%
    13:00 +3°C° 0 mm 1 mps 631 mmHg 83%
    14:00 +3°C° 0 mm 1 mps 631 mmHg 85%
    15:00 +3°C° 0 mm 1 mps 630 mmHg 88%
    16:00 +3°C° 0 mm 1 mps 630 mmHg 90%
    17:00 +1°C° 0 mm 1 mps 630 mmHg 91%
    18:00 0°C° 0 mm 1 mps 630 mmHg 91%
    19:00 -2°C° 0 mm 1 mps 630 mmHg 92%
    20:00 -2°C° 0 mm 1 mps 630 mmHg 90%
    21:00 -2°C° 0 mm 1 mps 630 mmHg 89%
    22:00 -2°C° 0 mm 1 mps 630 mmHg 87%
    23:00 -2°C° 0.1 mm 1 mps 631 mmHg 87%

    Day after tomorrow, 22 February, Friday

    Time Temperature Precipitation Wind Pressure Humidity
    00:00 -2°C° 0.1 mm 1 mps 631 mmHg 88%
    01:00 -1°C° 0.1 mm 1 mps 631 mmHg 88%
    02:00 -1°C° 0.3 mm 1 mps 631 mmHg 89%
    03:00 -1°C° 0.3 mm 1 mps 631 mmHg 90%
    04:00 -1°C° 0.3 mm 1 mps 631 mmHg 91%
    05:00 -1°C° 0.5 mm 1 mps 631 mmHg 92%
    06:00 -3°C° 0.5 mm 2 mps 631 mmHg 92%
    07:00 -3°C° 0.5 mm 2 mps 631 mmHg 93%
    08:00 -3°C° 0.8 mm 2 mps 631 mmHg 93%
    09:00 -2°C° 0.8 mm 2 mps 631 mmHg 93%
    10:00 -2°C° 0.8 mm 2 mps 631 mmHg 92%
    11:00 -2°C° 1.1 mm 2 mps 631 mmHg 93%
    12:00 -2°C° 1.1 mm 2 mps 631 mmHg 93%
    13:00 -2°C° 1.1 mm 2 mps 631 mmHg 94%
    14:00 -2°C° 0.5 mm 2 mps 631 mmHg 94%
    15:00 -2°C° 0.5 mm 2 mps 631 mmHg 95%
    16:00 -2°C° 0.5 mm 2 mps 631 mmHg 95%
    17:00 -2°C° 0.4 mm 2 mps 632 mmHg 96%
    18:00 0°C° 0.4 mm 1 mps 632 mmHg 96%
    19:00 -1°C° 0.4 mm 1 mps 633 mmHg 97%
    20:00 -1°C° 0.3 mm 1 mps 633 mmHg 97%
    21:00 -1°C° 0.3 mm 1 mps 633 mmHg 97%
    22:00 -1°C° 0.3 mm 1 mps 633 mmHg 97%
    23:00 -2°C° 0.1 mm 1 mps 633 mmHg 97%

    23 February, Saturday

    Time Temperature Precipitation Wind Pressure Humidity
    00:00 -2°C° 0.1 mm 1 mps 633 mmHg 97%
    01:00 -3°C° 0.1 mm 0 mps 634 mmHg 97%
    02:00 -3°C° 0.1 mm 0 mps 633 mmHg 97%
    03:00 -4°C° 0.1 mm 0 mps 633 mmHg 96%
    04:00 -4°C° 0.1 mm 0 mps 633 mmHg 96%
    05:00 -4°C° 0 mm 0 mps 633 mmHg 95%
    06:00 -4°C° 0 mm 0 mps 633 mmHg 95%
    07:00 -5°C° 0 mm 0 mps 633 mmHg 94%
    08:00 -4°C° 0 mm 0 mps 633 mmHg 91%
    09:00 -2°C° 0 mm 1 mps 634 mmHg 89%
    10:00 -1°C° 0 mm 1 mps 634 mmHg 87%
    11:00 0°C° 0 mm 1 mps 634 mmHg 84%
    12:00 0°C° 0 mm 1 mps 634 mmHg 82%
    13:00 0°C° 0 mm 1 mps 634 mmHg 79%
    14:00 0°C° 0 mm 1 mps 634 mmHg 78%
    15:00 0°C° 0 mm 1 mps 633 mmHg 76%
    16:00 0°C° 0 mm 1 mps 633 mmHg 75%
    17:00 -2°C° 0 mm 1 mps 633 mmHg 77%
    18:00 -4°C° 0 mm 1 mps 632 mmHg 79%
    19:00 -7°C° 0 mm 0 mps 632 mmHg 81%
    20:00 -7°C° 0 mm 1 mps 632 mmHg 76%
    21:00 -7°C° 0 mm 1 mps 632 mmHg 72%
    22:00 -7°C° 0 mm 1 mps 632 mmHg 68%
    23:00 -7°C° 0 mm 1 mps 632 mmHg 65%

    24 February, Sunday

    Time Temperature Precipitation Wind Pressure Humidity
    00:00 -7°C° 0 mm 1 mps 632 mmHg 62%
    01:00 -7°C° 0 mm 1 mps 632 mmHg 58%
    02:00 -7°C° 0 mm 1 mps 632 mmHg 57%
    03:00 -7°C° 0 mm 1 mps 632 mmHg 55%
    04:00 -7°C° 0 mm 1 mps 631 mmHg 54%
    05:00 -7°C° 0 mm 1 mps 631 mmHg 53%
    06:00 -7°C° 0 mm 1 mps 631 mmHg 52%
    07:00 -7°C° 0 mm 1 mps 631 mmHg 51%
    08:00 -4°C° 0 mm 1 mps 632 mmHg 53%
    09:00 -2°C° 0 mm 1 mps 633 mmHg 56%
    10:00 0°C° 0 mm 1 mps 634 mmHg 58%
    11:00 +1°C° 0 mm 1 mps 634 mmHg 62%
    12:00 +1°C° 0 mm 1 mps 634 mmHg 65%
    13:00 +2°C° 0 mm 1 mps 634 mmHg 69%
    14:00 +1°C° 0 mm 1 mps 633 mmHg 70%
    15:00 +1°C° 0 mm 1 mps 633 mmHg 72%
    16:00 +1°C° 0 mm 1 mps 633 mmHg 74%
    17:00 -1°C° 0 mm 1 mps 632 mmHg 75%
    18:00 -4°C° 0 mm 0 mps 632 mmHg 77%
    19:00 -6°C° 0 mm 0 mps 632 mmHg 78%
    20:00 -6°C° 0 mm 0 mps 632 mmHg 78%
    21:00 -6°C° 0 mm 0 mps 632 mmHg 77%
    22:00 -6°C° 0 mm 1 mps 632 mmHg 76%
    23:00 -6°C° 0 mm 1 mps 632 mmHg 75%

    25 February, Monday

    Time Temperature Precipitation Wind Pressure Humidity
    00:00 -6°C° 0 mm 1 mps 632 mmHg 74%
    01:00 -6°C° 0 mm 1 mps 632 mmHg 73%
    02:00 -7°C° 0 mm 1 mps 632 mmHg 72%
    03:00 -7°C° 0 mm 1 mps 632 mmHg 71%
    04:00 -7°C° 0 mm 1 mps 632 mmHg 69%
    05:00 -7°C° 0 mm 1 mps 632 mmHg 68%
    06:00 -7°C° 0 mm 1 mps 632 mmHg 67%
    07:00 -7°C° 0 mm 1 mps 632 mmHg 67%
    08:00 -5°C° 0 mm 0 mps 632 mmHg 65%
    09:00 -3°C° 0 mm 0 mps 633 mmHg 64%
    10:00 -1°C° 0 mm 0 mps 634 mmHg 63%
    11:00 0°C° 0 mm 1 mps 634 mmHg 66%
    12:00 +1°C° 0 mm 1 mps 633 mmHg 69%
    13:00 +1°C° 0 mm 1 mps 633 mmHg 72%
    14:00 +1°C° 0 mm 1 mps 633 mmHg 73%
    15:00 +1°C° 0 mm 1 mps 633 mmHg 75%
    16:00 +1°C° 0 mm 1 mps 633 mmHg 76%
    17:00 -1°C° 0 mm 1 mps 632 mmHg 79%
    18:00 -3°C° 0 mm 0 mps 632 mmHg 82%
    19:00 -5°C° 0 mm 0 mps 632 mmHg 85%
    20:00 -5°C° 0 mm 0 mps 632 mmHg 85%
    21:00 -5°C° 0 mm 0 mps 632 mmHg 86%
    22:00 -5°C° 0 mm 0 mps 632 mmHg 86%
    23:00 -4°C° 0 mm 1 mps 632 mmHg 86%
    Show more